When you browse on this site, cookies collect data to enhance your experience and personalize the content and advertising you see.
Visit our Privacy Policy to learn more. By continuing to use the site, you agree to this use of cookies and data.

Hourly Weather Pustniki

Today, 13 July, Monday

Time Temperature Precipitation Wind Pressure Humidity
00:00 +9°C° 0 mm 2 mps 754 mmHg 93%
01:00 +8°C° 0 mm 3 mps 754 mmHg 94%
02:00 +8°C° 0 mm 3 mps 753 mmHg 95%
03:00 +8°C° 0 mm 3 mps 753 mmHg 96%
04:00 +8°C° 0 mm 3 mps 753 mmHg 96%
05:00 +10°C° 0 mm 3 mps 753 mmHg 92%
06:00 +12°C° 0 mm 3 mps 753 mmHg 88%
07:00 +13°C° 0 mm 4 mps 753 mmHg 84%
08:00 +14°C° 0.3 mm 4 mps 753 mmHg 81%
09:00 +17°C° 0.3 mm 4 mps 753 mmHg 77%
10:00 +18°C° 0.3 mm 4 mps 752 mmHg 74%
11:00 +18°C° 0.4 mm 4 mps 752 mmHg 74%
12:00 +18°C° 0.4 mm 4 mps 752 mmHg 74%
13:00 +18°C° 0.4 mm 4 mps 752 mmHg 75%
14:00 +18°C° 0.3 mm 4 mps 752 mmHg 75%
15:00 +18°C° 0.3 mm 4 mps 752 mmHg 75%
16:00 +18°C° 0.3 mm 4 mps 751 mmHg 76%
17:00 +17°C° 0 mm 4 mps 751 mmHg 79%
18:00 +16°C° 0 mm 3 mps 751 mmHg 83%
19:00 +14°C° 0 mm 3 mps 751 mmHg 86%
20:00 +14°C° 0 mm 2 mps 751 mmHg 89%
21:00 +13°C° 0 mm 2 mps 751 mmHg 92%
22:00 +12°C° 0 mm 2 mps 751 mmHg 95%
23:00 +10°C° 0 mm 2 mps 751 mmHg 95%

Tomorrow, 14 July, Tuesday

Time Temperature Precipitation Wind Pressure Humidity
00:00 +10°C° 0 mm 2 mps 751 mmHg 95%
01:00 +10°C° 0 mm 2 mps 751 mmHg 95%
02:00 +10°C° 0 mm 2 mps 751 mmHg 95%
03:00 +9°C° 0 mm 2 mps 751 mmHg 95%
04:00 +9°C° 0 mm 2 mps 750 mmHg 96%
05:00 +12°C° 0 mm 2 mps 751 mmHg 90%
06:00 +13°C° 0 mm 2 mps 751 mmHg 84%
07:00 +15°C° 0 mm 2 mps 751 mmHg 78%
08:00 +16°C° 0 mm 2 mps 751 mmHg 73%
09:00 +18°C° 0 mm 2 mps 751 mmHg 67%
10:00 +19°C° 0 mm 2 mps 751 mmHg 61%
11:00 +20°C° 0 mm 2 mps 750 mmHg 60%
12:00 +20°C° 0 mm 2 mps 750 mmHg 59%
13:00 +21°C° 0 mm 3 mps 750 mmHg 58%
14:00 +21°C° 0 mm 3 mps 750 mmHg 58%
15:00 +21°C° 0 mm 3 mps 749 mmHg 58%
16:00 +21°C° 0 mm 3 mps 749 mmHg 59%
17:00 +20°C° 0 mm 2 mps 749 mmHg 66%
18:00 +18°C° 0 mm 2 mps 749 mmHg 73%
19:00 +17°C° 0 mm 2 mps 749 mmHg 80%
20:00 +16°C° 0 mm 1 mps 749 mmHg 82%
21:00 +14°C° 0 mm 1 mps 749 mmHg 84%
22:00 +13°C° 0 mm 1 mps 749 mmHg 86%
23:00 +13°C° 0 mm 1 mps 749 mmHg 86%

Day after tomorrow, 15 July, Wednesday

Time Temperature Precipitation Wind Pressure Humidity
00:00 +12°C° 0 mm 1 mps 749 mmHg 86%
01:00 +12°C° 0 mm 1 mps 749 mmHg 86%
02:00 +12°C° 0 mm 1 mps 749 mmHg 87%
03:00 +12°C° 0 mm 1 mps 748 mmHg 89%
04:00 +12°C° 0 mm 1 mps 748 mmHg 91%
05:00 +14°C° 0 mm 1 mps 748 mmHg 85%
06:00 +16°C° 0 mm 2 mps 748 mmHg 80%
07:00 +18°C° 0 mm 2 mps 749 mmHg 74%
08:00 +19°C° 0 mm 2 mps 748 mmHg 68%
09:00 +21°C° 0 mm 2 mps 748 mmHg 61%
10:00 +23°C° 0 mm 2 mps 748 mmHg 55%
11:00 +24°C° 0 mm 2 mps 748 mmHg 53%
12:00 +24°C° 0 mm 2 mps 747 mmHg 51%
13:00 +25°C° 0 mm 3 mps 747 mmHg 49%
14:00 +25°C° 0 mm 3 mps 747 mmHg 52%
15:00 +24°C° 0 mm 3 mps 747 mmHg 54%
16:00 +24°C° 0 mm 3 mps 746 mmHg 57%
17:00 +22°C° 0.1 mm 3 mps 746 mmHg 64%
18:00 +20°C° 0.1 mm 3 mps 746 mmHg 70%
19:00 +19°C° 0.1 mm 3 mps 746 mmHg 76%
20:00 +18°C° 0.1 mm 3 mps 746 mmHg 78%
21:00 +17°C° 0.1 mm 3 mps 746 mmHg 80%
22:00 +14°C° 0.1 mm 3 mps 746 mmHg 81%
23:00 +14°C° 0.1 mm 3 mps 746 mmHg 83%

16 July, Thursday

Time Temperature Precipitation Wind Pressure Humidity
00:00 +14°C° 0.1 mm 3 mps 746 mmHg 85%
01:00 +13°C° 0.1 mm 3 mps 745 mmHg 87%
02:00 +13°C° 0 mm 3 mps 745 mmHg 88%
03:00 +13°C° 0 mm 3 mps 745 mmHg 89%
04:00 +13°C° 0 mm 3 mps 745 mmHg 90%
05:00 +14°C° 0 mm 3 mps 745 mmHg 88%
06:00 +17°C° 0 mm 3 mps 745 mmHg 86%
07:00 +18°C° 0 mm 3 mps 745 mmHg 84%
08:00 +19°C° 0.8 mm 3 mps 745 mmHg 82%
09:00 +20°C° 0.8 mm 3 mps 745 mmHg 80%
10:00 +21°C° 0.8 mm 3 mps 745 mmHg 78%
11:00 +21°C° 0.9 mm 2 mps 745 mmHg 80%
12:00 +20°C° 0.9 mm 2 mps 745 mmHg 83%
13:00 +21°C° 0.9 mm 1 mps 745 mmHg 85%
14:00 +20°C° 0.4 mm 1 mps 745 mmHg 87%
15:00 +20°C° 0.4 mm 1 mps 745 mmHg 88%
16:00 +19°C° 0.4 mm 1 mps 745 mmHg 90%
17:00 +19°C° 0.3 mm 1 mps 745 mmHg 91%
18:00 +18°C° 0.3 mm 1 mps 745 mmHg 93%
19:00 +16°C° 0.3 mm 0 mps 745 mmHg 94%
20:00 +16°C° 0.2 mm 1 mps 745 mmHg 94%
21:00 +16°C° 0.2 mm 1 mps 745 mmHg 95%
22:00 +16°C° 0.2 mm 1 mps 745 mmHg 95%
23:00 +16°C° 0.4 mm 1 mps 745 mmHg 96%

17 July, Friday

Time Temperature Precipitation Wind Pressure Humidity
00:00 +16°C° 0.4 mm 1 mps 745 mmHg 96%
01:00 +15°C° 0.4 mm 1 mps 745 mmHg 97%
02:00 +15°C° 1 mm 1 mps 745 mmHg 97%
03:00 +14°C° 1 mm 0 mps 745 mmHg 98%
04:00 +14°C° 1 mm 0 mps 745 mmHg 98%
05:00 +14°C° 1.9 mm 0 mps 745 mmHg 98%
06:00 +15°C° 1.9 mm 1 mps 745 mmHg 98%
07:00 +16°C° 1.9 mm 1 mps 745 mmHg 98%
08:00 +16°C° 1.3 mm 1 mps 746 mmHg 97%
09:00 +16°C° 1.3 mm 1 mps 746 mmHg 97%
10:00 +16°C° 1.3 mm 1 mps 746 mmHg 96%
11:00 +16°C° 1.5 mm 1 mps 746 mmHg 96%
12:00 +16°C° 1.5 mm 1 mps 746 mmHg 95%
13:00 +18°C° 1.5 mm 1 mps 746 mmHg 95%
14:00 +17°C° 0.8 mm 2 mps 746 mmHg 95%
15:00 +17°C° 0.8 mm 2 mps 746 mmHg 94%
16:00 +17°C° 0.8 mm 2 mps 746 mmHg 94%
17:00 +16°C° 0.8 mm 2 mps 746 mmHg 94%
18:00 +16°C° 0.8 mm 2 mps 746 mmHg 95%
19:00 +15°C° 0.8 mm 1 mps 746 mmHg 95%
20:00 +15°C° 0.3 mm 2 mps 746 mmHg 95%
21:00 +15°C° 0.3 mm 2 mps 746 mmHg 94%
22:00 +15°C° 0.3 mm 2 mps 746 mmHg 94%
23:00 +15°C° 0.2 mm 2 mps 746 mmHg 94%

18 July, Saturday

Time Temperature Precipitation Wind Pressure Humidity
00:00 +14°C° 0.2 mm 2 mps 746 mmHg 95%
01:00 +14°C° 0.2 mm 2 mps 746 mmHg 95%
02:00 +14°C° 0 mm 2 mps 746 mmHg 95%
03:00 +14°C° 0 mm 2 mps 746 mmHg 95%
04:00 +13°C° 0 mm 2 mps 746 mmHg 95%
05:00 +15°C° 0 mm 2 mps 747 mmHg 93%
06:00 +16°C° 0 mm 2 mps 747 mmHg 90%
07:00 +17°C° 0 mm 3 mps 747 mmHg 88%
08:00 +19°C° 0.1 mm 3 mps 747 mmHg 81%
09:00 +20°C° 0.1 mm 3 mps 747 mmHg 74%
10:00 +21°C° 0.1 mm 3 mps 747 mmHg 67%
11:00 +22°C° 0.2 mm 3 mps 747 mmHg 66%
12:00 +22°C° 0.2 mm 3 mps 747 mmHg 66%
13:00 +22°C° 0.2 mm 3 mps 747 mmHg 65%
14:00 +22°C° 0.4 mm 3 mps 746 mmHg 68%
15:00 +21°C° 0.4 mm 4 mps 746 mmHg 71%
16:00 +21°C° 0.4 mm 4 mps 746 mmHg 73%
17:00 +20°C° 0 mm 3 mps 746 mmHg 77%
18:00 +19°C° 0 mm 3 mps 746 mmHg 81%
19:00 +18°C° 0 mm 3 mps 746 mmHg 84%
20:00 +16°C° 0 mm 3 mps 746 mmHg 87%
21:00 +15°C° 0 mm 2 mps 746 mmHg 90%
22:00 +13°C° 0 mm 2 mps 747 mmHg 92%
23:00 +13°C° 0 mm 2 mps 746 mmHg 92%
Show more